This is the latest recevied weather packets stored in our database for station/object KD8OZS. If no packets are shown the sender has not sent any weather packets the latest 10 day(s).
| Time | Temp. | Humidity | Pressure | Rain* | Wind** | Luminosity | Snow |
|---|---|---|---|---|---|---|---|
| 1777609637 | 2.22° C | 95% | 1006.7 hPa | 0 mm | - | 0 W/m² | - |
| 1777609334 | 2.78° C | 94% | 1006.9 hPa | 0 mm | - | 0 W/m² | - |
| 1777609031 | 2.22° C | 94% | 1007 hPa | 0 mm | - | 0 W/m² | - |
| 1777608729 | 2.78° C | 94% | 1007 hPa | 0 mm | - | 0 W/m² | - |
| 1777608425 | 2.78° C | 94% | 1007.1 hPa | 0 mm | - | 0 W/m² | - |
| 1777608123 | 2.78° C | 94% | 1007.1 hPa | 0 mm | - | 0 W/m² | - |
| 1777607820 | 2.78° C | 94% | 1007.2 hPa | 0 mm | - | 0 W/m² | - |
| 1777607516 | 3.33° C | 94% | 1007.2 hPa | 0 mm | - | 0 W/m² | - |
| 1777607212 | 2.78° C | 94% | 1007.1 hPa | 0 mm | - | 0 W/m² | - |
| 1777606908 | 2.78° C | 94% | 1007 hPa | 0 mm | - | 0 W/m² | - |
| 1777606604 | 2.78° C | 93% | 1007 hPa | 0 mm | - | 0 W/m² | - |
| 1777606299 | 3.33° C | 93% | 1007.2 hPa | 0 mm | - | 0 W/m² | - |
| 1777605995 | 3.33° C | 93% | 1007.2 hPa | 0 mm | - | 0 W/m² | - |
| 1777605691 | 3.33° C | 93% | 1007.4 hPa | 0 mm | - | 0 W/m² | - |
| 1777605390 | 3.33° C | 93% | 1007.4 hPa | 0 mm | - | 0 W/m² | - |
| 1777605087 | 3.33° C | 92% | 1007.5 hPa | 0 mm | - | 0 W/m² | - |
| 1777604782 | 3.89° C | 92% | 1007.7 hPa | 0 mm | - | 0 W/m² | - |
| 1777604480 | 3.89° C | 92% | 1007.6 hPa | 0 mm | - | 0 W/m² | - |
| 1777604179 | 3.89° C | 91% | 1007.5 hPa | 0 mm | - | 0 W/m² | - |
| 1777603876 | 3.89° C | 91% | 1007.5 hPa | 0 mm | - | 0 W/m² | - |
| 1777603573 | 3.89° C | 90% | 1007.8 hPa | 0 mm | - | 0 W/m² | - |
| 1777603269 | 3.89° C | 90% | 1007.7 hPa | 0 mm | - | 0 W/m² | - |
| 1777602964 | 3.89° C | 90% | 1007.6 hPa | 0 mm | - | 0 W/m² | - |
| 1777602659 | 3.89° C | 90% | 1007.6 hPa | 0 mm | - | 0 W/m² | - |
| 1777602354 | 3.89° C | 90% | 1007.6 hPa | 0 mm | - | 0 W/m² | - |
* Rain latest hour (hover to see other rain measurements)
** Current wind speed in m/s (hover to see current wind gust speed)